Theta_e
292 292 293 293 294 294 295 296 297 296 295 295 295 296 296 296 296 294 288 292 287 280 282 285 285 281 281 281 277 279 279 279 278 274 274 273 272 273 273 276 275 275 275 274 276 274 271 287 289 283 287 293 294 294
292 292 292 293 294 294 297 296 298 297 295 295 295 295 296 297 296 297 285 292 293 283 282 287 288 288 287 286 283 283 281 280 280 278 277 278 274 275 275 271 280 275 279 277 279 279 285 287 288 292 291 289 290 290
291 291 292 293 294 295 296 294 293 292 294 295 296 296 296 297 297 295 287 289 289 283 281 282 281 288 291 290 291 280 284 285 283 286 281 278 273 279 273 275 278 282 284 281 281 282 283 287 288 289 292 292 291 291
290 291 292 294 295 296 296 293 294 294 294 295 296 297 298 298 298 296 288 290 287 283 274 277 287 285 289 291 290 288 286 289 289 287 281 278 276 282 278 279 279 282 283 280 281 283 285 286 288 290 290 291 290 291
290 291 293 294 295 296 293 293 294 293 293 294 295 296 296 296 297 294 292 291 290 282 275 276 282 286 288 289 288 289 288 285 284 281 279 277 282 280 280 279 278 281 279 278 278 283 285 286 289 290 289 287 290 289
290 291 292 294 294 296 294 294 293 293 293 294 295 296 296 296 296 289 283 289 291 289 277 273 282 277 285 288 287 286 286 284 283 279 276 279 280 280 272 272 280 283 284 287 282 286 286 286 288 288 288 288 287 286
289 290 292 293 294 295 293 293 292 293 293 294 295 295 296 296 291 283 281 287 293 290 280 271 273 281 284 283 283 283 285 281 279 275 274 277 278 280 273 270 279 282 284 284 284 285 283 284 284 286 284 285 282 281
288 289 290 292 294 293 292 292 291 293 293 294 295 295 295 295 293 286 290 293 292 285 283 272 275 272 283 278 276 284 280 282 277 274 275 274 277 274 268 278 280 281 282 283 284 285 285 285 282 283 282 282 278 279
288 289 290 291 294 292 292 292 293 294 294 294 294 294 288 285 283 284 293 294 290 283 274 278 270 268 279 276 277 277 277 271 274 270 271 275 269 268 276 279 280 280 281 282 283 282 282 281 283 281 279 280 283 283
287 289 289 290 293 293 293 294 293 292 293 292 288 284 279 284 294 292 286 282 283 279 281 272 276 273 276 274 274 273 272 269 271 273 274 273 274 279 280 281 281 282 281 278 277 278 277 280 285 282 282 283 284 284
287 288 288 289 291 293 293 294 293 291 289 285 283 281 285 292 285 282 278 277 278 275 277 277 272 275 278 273 270 275 269 268 264 268 269 264 265 278 280 277 272 272 271 271 273 276 276 278 281 283 281 283 284 284
286 287 287 289 291 292 293 293 292 286 284 285 285 285 284 280 278 275 273 271 270 269 271 271 272 277 278 277 271 274 271 274 268 270 267 264 274 260 258 260 261 263 263 264 266 269 272 274 276 280 281 283 283 282
285 286 286 288 289 291 291 290 290 289 287 285 283 279 278 275 272 270 267 267 269 269 270 273 273 277 277 279 274 272 270 271 271 272 266 266 257 256 255 256 258 259 257 259 263 265 269 271 274 278 280 281 280 277
285 285 286 288 289 289 288 286 285 284 281 274 273 270 268 268 268 263 263 264 263 267 268 271 273 272 276 274 272 266 266 264 264 266 265 258 255 255 256 256 256 257 257 259 261 264 267 271 274 278 281 278 278 276
284 284 284 283 286 287 286 284 282 275 272 267 268 264 260 261 260 259 258 261 261 263 266 268 269 271 268 266 264 264 261 259 263 261 256 256 256 256 255 256 256 256 257 258 261 265 268 274 278 274 275 278 278 277
283 282 280 283 284 286 283 279 275 270 265 262 260 260 258 260 260 260 260 260 261 262 265 266 270 270 270 269 265 263 262 262 257 253 255 256 256 254 254 255 256 258 258 259 262 266 269 275 275 274 277 278 277 276
282 274 280 281 283 282 278 274 272 264 262 258 254 256 258 258 258 258 257 258 261 260 266 268 269 267 266 266 264 257 258 254 253 254 256 257 256 255 255 256 256 258 259 261 267 270 271 274 275 275 274 275 275 274
274 276 280 281 282 275 268 268 267 265 257 256 257 254 255 256 257 256 256 257 258 258 261 262 262 263 263 264 259 253 253 252 254 255 254 256 256 256 256 255 257 257 259 261 264 268 270 270 269 267 268 269 268 268
276 276 278 280 277 269 265 264 263 257 255 257 258 257 255 254 256 255 254 256 257 257 257 257 255 251 252 251 250 251 249 250 250 251 253 255 256 256 257 257 259 260 260 262 265 266 267 267 267 267 268 268 267 267
276 274 276 276 275 268 260 259 262 258 257 258 259 256 255 253 254 253 251 252 252 251 248 248 247 246 245 246 248 249 249 250 250 250 253 255 256 255 256 256 256 259 259 259 260 264 266 267 268 268 268 268 267 266
267 268 272 270 265 260 257 255 255 256 257 255 257 258 253 253 249 248 247 251 246 244 244 246 246 245 244 246 248 249 250 250 249 250 251 251 253 254 254 255 255 255 256 257 257 258 259 259 263 264 263 263 265 264
260 268 264 266 263 260 256 255 256 257 255 255 253 253 251 248 246 244 248 245 244 243 244 245 245 244 244 244 247 249 249 250 253 253 254 253 250 250 251 251 254 253 253 254 256 256 257 258 261 262 262 262 263 263
261 261 259 258 260 259 254 257 253 253 251 251 252 248 247 246 247 250 243 243 244 246 246 246 246 245 243 246 247 249 249 249 252 251 252 253 252 252 251 251 252 252 253 253 256 257 258 260 260 260 261 261 261 260
256 248 249 250 253 252 253 251 254 251 251 249 247 244 243 244 248 244 240 241 244 247 245 245 246 247 245 245 246 248 248 249 252 251 251 252 252 252 252 251 251 252 254 255 256 257 258 259 260 259 259 259 259 258
253 243 247 247 248 249 249 248 249 251 245 246 244 243 243 245 242 239 240 241 243 243 244 246 246 247 246 247 248 249 249 248 249 250 249 250 251 255 255 253 252 251 253 255 255 255 255 256 257 257 257 257 256 256
243 242 243 242 244 245 245 244 244 245 248 246 244 245 246 245 242 239 239 241 242 243 243 243 244 246 247 247 247 247 247 249 249 250 249 249 249 249 253 251 251 251 252 254 255 254 254 254 254 255 255 255 256 255
242 241 243 246 245 246 245 247 247 245 243 243 241 244 248 245 240 240 244 246 244 245 247 247 246 246 246 247 248 248 249 249 248 248 250 250 251 251 250 249 248 249 252 253 254 254 254 254 253 253 252 252 253 254
240 241 241 243 244 245 243 243 243 242 242 243 244 241 241 240 239 245 247 249 249 249 249 249 248 247 247 247 247 248 248 249 249 250 251 251 251 251 251 251 253 256 254 254 253 253 253 253 253 253 252 251 250 251
242 243 242 242 244 243 242 242 242 243 244 244 244 243 242 245 246 247 248 249 250 249 248 248 248 249 248 249 249 249 249 249 249 250 249 249 250 249 251 251 251 251 252 253 258 255 254 253 251 251 250 250 250 250
242 242 244 243 242 241 243 243 244 245 247 246 247 247 246 247 248 250 249 249 248 248 248 248 249 249 248 249 248 248 249 249 249 249 249 248 248 250 250 250 250 250 251 252 252 251 255 252 252 250 249 249 249 248
245 245 245 245 244 244 245 245 246 248 249 247 248 246 245 246 248 250 249 249 249 249 248 248 248 248 248 248 248 249 247 249 249 249 250 250 250 250 250 250 249 249 250 250 250 250 250 249 249 248 246 245 244 244
245 244 246 244 244 245 246 245 245 245 246 246 246 247 246 246 245 247 249 249 248 247 247 247 247 247 248 249 249 249 249 248 248 250 250 250 250 250 250 250 249 248 248 248 247 247 246 246 245 244 243 243 243 242
245 246 246 246 245 245 245 244 245 244 245 245 244 245 245 246 243 246 249 249 248 247 246 247 247 248 248 248 248 248 248 248 250 253 255 255 254 253 250 249 249 248 247 247 247 246 247 244 243 242 242 242 242 242
Wind_Speed
38 38 41 42 42 42 42 42 40 37 34 32 30 26 27 25 24 19 6 13 10 4 3 5 6 10 6 7 13 10 8 11 10 16 13 6 7 11 12 20 25 19 17 17 18 22 30 4 4 6 8 13 16 17
38 39 41 43 43 45 45 36 39 34 39 35 33 30 32 32 29 26 2 12 6 3 1 1 7 12 15 16 10 5 11 9 12 10 10 7 4 6 16 18 12 28 18 11 12 6 2 5 5 4 5 5 7 13
37 41 42 42 43 43 36 24 12 3 20 30 33 34 34 34 32 25 4 6 6 3 2 3 11 11 12 14 6 5 6 20 17 8 2 4 5 8 7 10 7 9 12 8 3 5 6 8 4 4 2 5 5 9
40 41 42 41 43 43 25 18 15 16 15 24 29 31 32 32 31 28 5 7 5 4 3 6 1 8 2 8 11 7 8 5 2 3 2 3 3 4 3 9 11 9 4 9 7 6 2 7 6 3 6 3 4 10
40 41 42 41 43 40 14 15 15 14 12 7 11 25 30 31 30 16 6 6 4 6 3 2 2 5 4 6 10 9 8 6 1 2 2 2 1 4 1 1 5 5 7 6 6 9 7 6 9 8 7 5 3 9
39 42 42 42 43 36 15 10 6 9 4 8 17 22 25 25 25 5 4 4 7 3 1 3 0 4 3 6 7 5 3 1 1 2 1 0 0 4 3 3 6 6 4 5 4 5 5 5 9 6 5 7 7 9
39 42 41 43 45 22 7 6 2 4 2 11 16 17 18 22 9 4 4 3 17 6 2 3 3 1 4 0 2 2 4 2 3 2 1 2 1 4 1 4 3 7 8 7 4 7 3 5 9 11 6 6 4 6
38 42 42 44 42 5 1 3 3 2 5 9 14 12 14 23 10 4 3 11 13 4 2 4 2 2 4 3 1 2 2 1 2 3 0 4 3 3 2 10 11 10 8 6 9 7 2 4 3 6 6 6 6 4
38 40 41 43 32 4 3 1 4 6 6 12 17 16 6 3 2 3 12 21 1 4 4 3 5 4 3 1 3 1 2 2 1 2 3 4 1 4 10 12 6 10 13 18 3 6 7 7 6 4 4 6 3 3
37 39 40 42 36 9 5 13 17 15 14 10 4 3 3 4 13 17 4 5 4 2 2 2 1 2 3 2 1 4 2 4 4 6 2 4 8 8 6 9 7 7 2 4 5 7 3 7 11 5 6 4 3 8
35 37 39 39 30 24 7 12 14 10 4 1 2 1 2 12 2 2 4 5 4 5 5 1 2 4 2 3 3 3 4 2 2 6 7 4 4 16 14 4 5 6 6 5 5 4 2 4 5 6 6 6 6 10
33 35 35 37 27 23 6 11 4 3 2 0 5 3 2 2 1 2 2 1 0 4 1 3 3 1 3 1 3 1 3 3 6 2 4 5 8 7 9 7 8 7 8 8 4 6 6 3 6 6 5 6 9 10
30 32 34 36 22 23 16 13 8 7 1 1 1 3 0 1 4 5 6 2 3 1 2 2 2 3 1 2 1 2 3 6 1 4 6 4 2 6 10 12 13 9 3 2 6 7 7 8 8 10 8 4 8 9
28 29 30 27 24 21 18 15 12 4 3 3 2 2 2 3 2 3 3 3 1 3 4 3 2 2 1 4 3 4 5 3 4 5 8 3 7 9 8 8 9 13 11 9 5 6 7 9 8 7 6 9 11 12
26 28 23 20 29 23 21 15 13 5 4 3 2 3 2 2 3 2 3 2 3 3 2 1 0 1 1 1 2 2 1 5 7 4 2 5 8 9 11 12 13 12 11 10 8 7 7 5 4 2 4 8 9 11
26 20 8 29 28 23 19 10 5 3 5 4 6 4 1 1 2 2 3 3 4 3 2 1 1 2 4 1 3 6 2 6 1 3 5 7 7 7 9 9 11 12 12 12 9 8 6 6 6 5 5 8 9 11
22 1 21 26 27 15 13 3 3 7 4 5 3 3 2 3 4 3 2 2 4 2 0 2 3 1 1 1 2 1 2 3 5 6 6 8 10 11 9 9 9 8 10 12 9 5 2 2 7 8 9 7 11 11
2 8 21 24 13 4 3 5 4 4 6 2 2 2 3 4 2 4 3 4 3 3 3 1 2 1 1 3 2 3 3 5 4 5 8 9 12 9 9 10 8 6 8 8 6 1 2 6 7 5 10 12 14 13
13 15 20 15 5 2 2 3 3 5 3 3 4 2 3 3 5 4 3 4 2 1 2 3 5 2 1 2 3 3 4 4 6 9 11 10 6 10 10 10 8 7 6 6 5 4 5 5 5 6 8 9 10 9
20 14 12 6 2 1 4 3 1 5 3 3 2 3 3 3 2 3 5 5 3 3 7 6 3 1 2 2 2 4 5 6 7 8 7 7 8 11 10 8 7 8 6 7 6 7 6 7 4 5 7 9 10 10
10 6 12 4 3 6 5 2 4 2 3 4 2 2 3 3 3 4 4 5 6 5 3 2 2 2 2 2 2 4 5 5 5 5 8 9 9 8 7 7 7 6 5 5 5 6 7 4 4 8 9 9 11 10
3 14 3 3 3 4 5 3 3 2 4 3 3 3 3 3 3 2 2 7 4 2 2 2 2 2 3 3 3 5 6 8 6 5 6 6 6 7 7 7 6 6 6 6 5 5 6 6 6 8 10 12 13 11
8 7 3 6 4 6 2 1 4 4 5 2 2 5 3 3 1 2 5 3 2 1 1 1 3 4 3 4 4 3 4 7 5 5 6 5 5 6 6 7 7 6 6 7 5 5 7 10 11 10 11 12 13 13
10 8 8 6 8 4 1 4 2 4 4 4 4 4 3 1 2 5 4 2 1 2 3 4 3 3 1 2 3 4 6 5 3 4 7 6 5 6 6 6 6 7 6 4 5 6 8 9 12 11 12 13 12 13
5 11 7 7 5 5 6 4 4 4 4 4 4 3 2 1 4 4 2 1 2 2 2 4 3 2 2 2 2 2 5 5 5 4 7 7 7 4 5 6 7 8 7 6 8 10 10 10 12 13 12 12 14 14
11 6 7 8 5 6 5 4 5 4 3 4 4 1 1 3 5 2 1 2 2 1 2 2 2 4 2 3 3 4 5 6 5 2 5 6 6 5 6 6 6 9 11 8 8 11 12 12 13 15 15 15 16 14
8 6 3 0 2 2 3 3 3 5 5 4 3 4 1 4 3 1 1 2 2 1 1 1 1 2 3 3 2 2 3 4 4 2 2 4 5 7 7 5 6 4 6 8 9 10 11 11 12 11 12 12 11 10
3 5 6 6 4 5 4 4 5 5 3 2 1 6 4 4 2 2 2 3 2 3 1 1 1 2 2 2 2 2 2 2 2 2 1 5 6 6 6 5 6 10 6 7 8 9 9 9 10 10 10 10 8 6
4 3 2 5 4 5 6 4 3 2 2 2 2 3 3 2 2 2 2 2 2 2 2 2 2 1 0 0 2 2 2 2 3 2 5 3 2 6 6 5 5 5 5 5 11 11 12 10 10 9 9 7 6 6
4 2 2 4 5 5 3 2 2 1 0 1 3 3 3 2 2 1 2 3 3 3 2 2 2 2 2 2 3 5 5 5 5 4 3 4 2 2 4 5 5 5 5 6 7 8 12 9 9 6 8 7 6 6
3 2 3 4 4 1 1 2 2 1 3 5 5 4 3 2 1 2 4 3 2 3 3 3 3 4 4 5 4 3 4 5 6 7 5 3 2 3 3 3 3 3 4 5 6 7 7 7 6 7 7 7 7 5
3 4 2 4 2 0 2 2 2 3 2 2 2 1 1 2 3 2 4 5 4 4 5 4 3 3 3 2 3 4 6 3 3 3 4 2 2 3 3 2 2 2 3 4 4 4 5 6 5 5 5 5 3 2
2 4 4 2 2 2 2 2 2 2 3 2 3 2 3 3 3 1 0 2 2 3 3 2 2 2 3 4 4 3 4 3 5 7 6 5 4 5 3 2 2 3 3 4 4 4 5 5 4 5 4 3 2 2
Wind_Direction
321 323 320 318 317 312 303 295 285 263 262 262 254 243 237 226 227 230 207 183 180 187 203 177 216 232 243 226 229 244 234 222 213 213 224 212 183 203 217 236 238 228 217 225 228 239 241 221 319 287 307 254 246 221
320 321 320 319 317 313 308 297 279 252 237 247 249 245 241 235 225 210 156 199 175 125 191 351 239 241 226 244 263 226 229 211 200 201 199 204 232 151 208 238 252 224 216 199 190 203 277 173 206 135 301 291 354 351
321 324 323 318 320 322 323 333 348 223 222 245 251 245 230 218 212 193 150 180 133 157 274 224 234 235 224 225 166 254 260 203 214 167 189 195 193 173 200 230 238 250 202 197 129 181 214 224 240 243 144 312 5 320
327 326 325 323 323 322 310 309 311 303 291 285 259 224 204 195 193 178 145 181 135 114 182 258 5 235 216 213 180 191 278 346 264 159 150 137 167 156 195 232 209 192 201 167 196 180 155 282 238 218 301 155 309 295
329 329 326 326 327 331 309 299 306 320 324 4 111 154 167 173 177 161 138 181 147 147 189 259 280 240 222 211 218 217 195 183 269 125 98 161 299 70 275 347 236 191 187 173 201 189 162 184 192 202 233 268 243 285
332 331 327 330 329 328 308 295 322 338 38 108 121 137 151 160 154 139 146 183 190 145 91 266 293 327 274 229 209 213 238 110 91 113 174 222 139 126 163 205 242 208 214 213 178 171 189 159 176 183 225 256 239 218
335 331 331 333 329 320 290 280 320 3 113 134 129 141 152 148 139 142 165 152 171 136 205 271 255 241 289 282 32 59 17 70 117 154 224 161 161 136 205 225 212 226 222 232 209 131 187 196 221 190 198 233 274 309
336 334 336 336 329 318 261 283 318 306 193 165 139 144 171 160 153 203 101 127 141 116 192 243 197 135 195 173 140 85 140 90 308 200 34 155 127 137 255 243 239 251 278 265 241 217 317 284 180 186 176 223 78 325
336 337 338 338 335 7 302 281 44 68 101 146 136 99 63 57 152 190 149 155 115 151 194 234 158 199 143 147 107 37 121 101 232 200 243 96 232 193 218 236 237 235 230 249 206 225 213 214 226 210 193 45 97 52
337 338 338 338 351 321 55 110 91 67 149 76 101 138 175 192 132 108 93 178 175 196 222 238 269 155 122 109 144 109 168 203 189 231 105 190 236 237 241 234 219 217 253 154 166 248 235 233 227 214 209 158 226 161
336 339 339 338 340 337 110 120 125 96 87 84 133 86 33 113 70 39 168 196 154 173 179 186 149 133 278 129 160 198 193 189 169 248 148 228 230 216 222 224 57 34 33 4 22 331 344 346 283 201 198 172 191 196
335 337 338 336 342 335 189 127 141 86 285 80 95 93 82 61 93 209 70 356 147 179 141 166 180 90 139 199 132 180 186 162 241 157 141 234 229 1 3 343 346 3 358 335 347 313 305 298 290 288 246 192 182 201
332 336 339 336 6 0 49 35 32 98 192 148 99 91 70 131 194 194 181 178 151 37 160 173 126 107 104 254 177 144 215 228 79 213 227 216 47 8 346 334 329 331 347 331 293 254 252 254 246 245 239 163 135 175
331 335 338 337 1 4 11 14 3 347 65 70 105 132 161 180 69 40 17 54 56 348 8 343 78 156 100 170 161 185 228 59 242 225 221 43 5 336 328 320 324 324 326 323 273 259 250 249 253 241 198 144 157 180
332 332 334 347 346 0 355 358 12 31 56 77 46 184 99 139 59 141 210 119 30 311 294 246 279 169 182 181 178 106 39 249 213 237 24 351 338 333 326 329 324 321 319 316 307 296 279 250 212 134 137 150 166 155
331 335 354 346 335 345 346 348 21 71 55 57 41 89 360 111 140 86 356 77 19 332 286 269 217 198 193 205 165 210 227 227 21 345 318 316 319 318 309 309 303 299 295 293 286 277 270 213 179 140 147 148 141 145
328 324 329 328 318 343 358 54 42 46 75 56 57 16 7 59 59 74 353 30 332 286 112 291 221 165 82 186 226 35 328 2 333 312 309 313 317 315 304 296 290 288 293 293 284 260 245 121 124 135 132 128 116 122
278 314 319 317 333 338 28 24 79 69 68 25 79 44 61 16 57 62 11 358 337 357 340 74 320 193 287 241 132 47 1 335 310 330 312 307 310 312 306 303 300 286 290 289 279 316 58 90 106 108 104 102 95 98
313 315 310 320 8 343 78 51 22 100 80 97 101 62 74 110 82 51 6 348 348 358 354 12 68 80 104 34 2 357 357 339 315 315 297 290 326 324 318 321 317 328 325 345 23 79 90 92 114 115 115 118 121 120
317 322 316 360 41 199 84 35 38 92 112 118 94 70 59 60 70 68 33 7 24 39 42 38 48 28 1 13 358 314 309 311 315 315 314 340 334 335 335 333 333 333 350 2 26 26 67 83 84 110 108 115 117 109
341 327 322 23 71 60 73 24 56 80 117 83 121 77 90 89 47 30 9 351 57 30 60 18 24 351 329 287 303 298 294 320 302 286 304 317 329 330 340 345 356 11 23 21 43 41 49 50 65 77 84 85 93 99
289 339 330 332 98 89 78 357 90 97 72 100 66 59 54 53 41 25 303 49 57 33 21 346 334 320 326 340 310 300 303 305 294 323 333 348 345 350 355 350 6 26 28 22 39 58 55 44 64 91 96 94 91 94
356 355 32 6 90 50 38 262 74 10 93 116 97 63 34 58 36 133 73 69 92 32 275 278 287 260 248 282 299 332 322 335 350 352 346 7 16 5 3 14 15 23 34 19 18 58 76 83 85 96 96 97 99 94
31 40 27 39 14 69 53 41 44 74 56 46 63 74 20 358 321 54 80 70 295 344 5 315 284 296 297 337 0 1 350 324 348 10 358 355 27 18 18 27 23 17 5 10 34 64 70 75 82 77 79 87 88 92
61 3 5 22 25 19 44 41 19 55 77 20 89 62 332 347 72 57 81 2 8 14 335 319 331 356 5 3 351 21 13 358 350 16 4 358 343 351 32 43 38 23 5 38 42 55 60 62 69 73 76 81 89 88
67 6 27 6 15 33 1 65 37 32 29 71 49 336 292 71 61 48 339 325 324 2 344 342 337 335 42 22 350 356 340 330 308 51 22 5 3 352 14 26 20 18 1 7 37 60 65 63 69 72 73 71 76 84
56 4 358 63 331 307 71 61 44 50 57 45 351 341 299 83 77 299 347 45 331 3 333 350 4 350 339 350 19 357 341 349 17 49 354 20 29 30 31 35 36 343 341 19 38 49 69 74 76 77 79 66 59 74
69 16 38 346 46 14 68 53 37 38 36 346 269 32 61 35 71 18 7 0 348 316 335 34 28 19 356 2 342 339 353 335 349 338 65 57 41 34 34 30 26 39 29 48 51 52 56 65 71 75 78 82 75 54
41 345 310 24 43 52 38 31 45 45 2 310 50 82 96 57 7 347 347 309 293 352 30 32 41 69 84 11 44 18 359 355 342 111 87 71 19 15 3 26 32 18 13 29 73 95 83 79 77 78 83 94 97 89
359 330 26 50 46 43 20 360 16 340 181 34 113 121 90 67 9 294 347 9 19 16 9 20 2 23 35 64 78 59 36 31 29 31 79 82 66 350 4 20 30 22 19 32 46 44 55 52 57 48 55 52 49 54
295 287 59 47 78 28 10 308 268 227 53 59 52 69 74 119 144 26 17 339 335 16 31 42 53 27 39 32 20 49 65 32 35 41 54 59 57 56 52 47 37 29 36 49 56 62 73 67 67 69 66 69 60 68
4 18 55 96 114 52 2 16 23 68 45 58 63 97 133 115 68 17 359 344 14 22 24 22 36 47 11 47 55 67 64 46 20 13 53 62 68 72 81 84 77 63 73 76 75 74 75 84 74 73 71 76 82 102
10 19 40 94 116 106 20 25 58 86 47 55 43 17 23 53 85 340 342 18 28 360 353 351 9 18 36 45 48 39 23 11 17 17 45 79 96 96 96 92 101 105 108 112 117 127 126 136 145 143 143 149 166 193